Weather History for Solander Island, BC

Change the Weather History Date:

Monday, January 7, 2013

  Actual Average Record
Temperature  
Mean Temperature 44 °F -  
Max Temperature 46 °F - - ()
Min Temperature 42 °F - - ()
Degree Days  
Heating Degree Days 20    
Moisture  
Dew Point 40 °F    
Average Humidity 83    
Maximum Humidity 97    
Minimum Humidity 57    
Precipitation  
Precipitation 0.51 in - - ()
Sea Level Pressure  
Sea Level Pressure 29.89 in    
Wind  
Wind Speed 20 mph ()    
Max Wind Speed 46 mph    
Max Gust Speed 52 mph    
T = Trace of Precipitation, MM = Missing Value Source: Averaged Metar Reports

Daily Weather History Graph

Daily Weather History Graph

Search for Another Location

Airport:

Trip Planner

Search our weather history database for the weather conditions in past years. The results will help you decide how hot, cold, wet, or windy it might be!

Date:

Astronomy

Jan. 07, 2013 Rise Set
Actual Time 8:29 AM PST 4:47 PM PST
Civil Twilight 7:51 AM PST 5:25 PM PST
Nautical Twilight 7:10 AM PST 6:06 PM PST
Astronomical Twilight 6:31 AM PST 6:45 PM PST
Moon 3:54 AM PST (1/7) 1:08 PM PST (1/7)
Length of Visible Light 9h 33m
Length of Day
8h 18m
Waning Crescent, 21% of the Moon is Illuminated
Jan 7
Waning Crescent
Jan 11
New
Jan 18
First Quarter
Jan 26
Full
Feb 3
Last Quarter

Hourly Weather History & Observations

Time (PST) Temp. Windchill Dew Point Humidity Pressure Visibility Wind Dir Wind Speed Gust Speed Precip Events Conditions
12:00 AM 45.0 °F 33.2 °F 44.2 °F 97% 29.66 in - ESE 46.0 mph 51.8 mph 0.06 in   Unknown
1:00 AM 46.0 °F 38.0 °F 45.3 °F 97% 29.70 in - SE 21.9 mph 32.2 mph 0.06 in   Unknown
2:00 AM 45.9 °F 37.8 °F 45.1 °F 97% 29.67 in - SSE 21.9 mph - 0.11 in   Unknown
3:00 AM 45.9 °F 38.5 °F 45.1 °F 97% 29.68 in - South 18.4 mph - 0.12 in   Unknown
4:00 AM 46 °F - 45 °F 96% 29.67 in - South 17.3 mph - -  
4:00 AM 46.0 °F 39.0 °F 45.3 °F 97% 29.67 in - South 17.3 mph - 0.12 in   Unknown
5:00 AM 45.9 °F 40.8 °F 45.1 °F 97% 29.66 in - SW 10.4 mph - 0.03 in   Unknown
6:00 AM 45.9 °F 38.8 °F 45.1 °F 97% 29.68 in - West 17.3 mph - 0.02 in   Unknown
8:00 AM 46.0 °F 37.4 °F 45.3 °F 97% 29.75 in - West 25.3 mph - N/A   Unknown
10:00 AM 46.0 °F 37.4 °F 43.3 °F 90% 29.84 in - West 25.3 mph - N/A   Unknown
11:00 AM 46.2 °F 36.8 °F 41.4 °F 83% 29.88 in - West 31.1 mph - N/A   Unknown
12:00 PM 45.7 °F 37.1 °F 41.5 °F 85% 29.92 in - WNW 24.2 mph - N/A   Unknown
1:00 PM 45.9 °F 36.3 °F 40.6 °F 82% 29.93 in - West 31.1 mph 38.0 mph N/A   Unknown
2:00 PM 45.7 °F 35.7 °F 37.2 °F 72% 29.95 in - WNW 33.4 mph - N/A   Unknown
3:00 PM 45.1 °F 35.6 °F 36.3 °F 71% 29.99 in - NW 28.8 mph - N/A   Unknown
4:00 PM 45 °F - 35 °F 57% 30.03 in - NW 21.9 mph - -  
4:00 PM 44.6 °F 36.1 °F 34.7 °F 68% 30.03 in - NW 21.9 mph - N/A   Unknown
5:00 PM 44.6 °F 36.9 °F 36.1 °F 72% 30.04 in - WNW 18.4 mph - N/A   Unknown
6:00 PM 43.9 °F 37.5 °F 34.3 °F 69% 30.05 in - NNW 12.7 mph - N/A   Unknown
7:00 PM 44.4 °F 39.0 °F 34.2 °F 67% 30.06 in - WNW 10.4 mph - N/A   Unknown
8:00 PM 44.4 °F 41.2 °F 35.4 °F 71% 30.08 in - WNW 5.8 mph - N/A   Unknown
9:00 PM 43.7 °F 42.1 °F 37.4 °F 78% 30.07 in - South 3.5 mph - N/A   Unknown
10:00 PM 43 °F - 37 °F 72% 30.08 in - ESE 5.8 mph - -  
10:00 PM 43.0 °F 39.5 °F 37.0 °F 80% 30.08 in - ESE 5.8 mph - N/A   Unknown
11:00 PM 42.6 °F 37.2 °F 37.6 °F 82% 30.08 in - ESE 9.2 mph - N/A   Unknown